Regional Weather Roundup
Issued by NWS

Home | Current Version | Previous Version | Text Only | Print | Product List | Glossary On
Versions: 1 2 3 4 5 6 7 8 9 10 11 12 13 14 15 16 17 18 19 20 21 22 23 24 25 26 27 28 29 30 31 32 33 34 35 36 37 38 39 40 41 42 43 44 45 46 47 48 49 50
000
ASUS44 KOUN 222200
RWROK

WEATHER ROUNDUP FOR OKLAHOMA
NATIONAL WEATHER SERVICE NORMAN OK
400 PM CST MON DEC 22 2014

NOTE: "FAIR" INDICATES FEW OR NO CLOUDS BELOW 12,000 FEET WITH NO
      SIGNIFICANT WEATHER AND/OR OBSTRUCTIONS TO VISIBILITY.

OKZ001>007-009>012-014-015-017-222300-
NORTHWEST OKLAHOMA AND THE PANHANDLE

CITY           SKY/WX    TMP DP  RH WIND       PRES   REMARKS
GAGE           CLOUDY    50  31  48 NW9       29.64R
$$

OKZ016-021>023-033>039-044-045-222300-
SOUTHWEST OKLAHOMA

CITY           SKY/WX    TMP DP  RH WIND       PRES   REMARKS
LAWTON/REGL    CLOUDY    59  33  37 NW10      29.62R
FREDERICK      CLOUDY    57  35  43 NW12      29.61S
CLINTON        CLOUDY    55  30  38 NW13      29.67R
HOBART         CLOUDY    57  32  38 NW17      29.65R
ALTUS AFB      CLOUDY    59  33  36 NW12      29.64S
$$

OKZ018>020-024>031-222300-
CENTRAL OKLAHOMA

CITY           SKY/WX    TMP DP  RH WIND       PRES   REMARKS
OKLAHOMA CITY  PTSUNNY   55  37  50 NW13      29.62R
OKC/WILEY POST PTSUNNY   56  37  49 NW10G21   29.63R
STILLWATER     MOSUNNY   57  39  51 NW16      29.58R
GUTHRIE        PTSUNNY   56  37  49 NW12G21   29.59S
$$

OKZ008-013-054>072-222300-
NORTHEAST OKLAHOMA

CITY           SKY/WX    TMP DP  RH WIND       PRES   REMARKS
TULSA          PTSUNNY   54  47  77 W12       29.55R
TULSA/JONES    CLOUDY    55  45  68 VRB6      29.56R
PONCA CITY     MOSUNNY   54  39  57 NW13      29.57R
BARTLESVILLE   CLOUDY    52  44  74 W8        29.56R
MUSKOGEE       CLOUDY    54  45  71 W12       29.57R
$$

OKZ032-040>043-046>053-073>077-222300-
SOUTH CENTRAL/SOUTHEAST OKLAHOMA

CITY           SKY/WX    TMP DP  RH WIND       PRES   REMARKS
MCALESTER      MOSUNNY   57  45  64 W8        29.58R
$$



USA.gov is the U.S. government's official web portal to all federal, state and local government web resources and services.